Weather History for EGKA - October, 2012

Change the Weather History Date:

Saturday, October 6, 2012

  Actual Average Record
Temperature  
Mean Temperature 52 °F -  
Max Temperature 57 °F 56 °F 64 °F (1997)
Min Temperature 45 °F 48 °F 37 °F (1999)
Degree Days  
Heating Degree Days 14    
Growing Degree Days 2 (Base 50)    
Moisture  
Dew Point 46 °F    
Average Humidity 78    
Maximum Humidity 91    
Minimum Humidity 57    
Precipitation  
Precipitation 0.03 in - - ()
Sea Level Pressure  
Sea Level Pressure 29.91 in    
Wind  
Wind Speed 10 mph ()    
Max Wind Speed 20 mph    
Max Gust Speed -    
Visibility 6.2 miles    
Events      
Averages and records for this station are not official NWS values.
T = Trace of Precipitation, MM = Missing Value Source: Averaged Metar Reports

Daily Weather History Graph

Daily Weather History Graph

Search for Another Location

Airport or City:

Trip Planner

Search our weather history database for the weather conditions in past years. The results will help you decide how hot, cold, wet, or windy it might be!

Date:

Astronomy

Oct. 06, 2012 Rise Set
Actual Time 7:10 AM BST 6:27 PM BST
Civil Twilight 6:37 AM BST 7:00 PM BST
Nautical Twilight 5:59 AM BST 7:38 PM BST
Astronomical Twilight 5:20 AM BST 8:16 PM BST
Moon 9:59 PM BST (10/6) 1:23 PM BST (10/6)
Length of Visible Light 12h 23m
Length of Day
11h 17m
Waning Gibbous, 67% of the Moon is Illuminated
Oct 6
Waning Gibbous
Oct 8
Last Quarter
Oct 15
New
Oct 22
First Quarter
Oct 29
Full

Hourly Weather History & Observations

Time (BST) Temp. Dew Point Humidity Pressure Visibility Wind Dir Wind Speed Gust Speed Precip Events Conditions
12:50 AM 60 °F 58 °F 90% 29.76 in - SW 17.3 mph - -  
3:50 AM 49 °F 47 °F 90% 29.74 in - NNW 19.6 mph - -  
6:50 AM 47 °F 45 °F 90% 29.79 in - NNE 15.0 mph - -  
8:50 AM 48.2 °F 44.6 °F 87% 29.86 in 6.2 mi NNE 10.4 mph - N/A   Partly Cloudy
9:20 AM 48.2 °F 44.6 °F 87% 29.86 in 6.2 mi NNE 10.4 mph - N/A   Scattered Clouds
9:50 AM 48 °F 44 °F 83% 29.90 in - NNE 11.5 mph - -  
9:50 AM 48.2 °F 44.6 °F 87% 29.89 in 6.2 mi NNE 10.4 mph - N/A   Scattered Clouds
10:20 AM 48.2 °F 44.6 °F 87% 29.89 in 6.2 mi North 11.5 mph - N/A   Partly Cloudy
10:50 AM 50.0 °F 46.4 °F 87% 29.92 in 6.2 mi NNE 8.1 mph - N/A   Partly Cloudy
11:20 AM 50.0 °F 44.6 °F 82% 29.92 in 6.2 mi NNE 5.8 mph - N/A   Partly Cloudy
11:50 AM 50.0 °F 46.4 °F 87% 29.95 in 6.2 mi North 6.9 mph - N/A   Partly Cloudy
12:20 PM 53.6 °F 48.2 °F 82% 29.95 in 6.2 mi North 6.9 mph - N/A   Partly Cloudy
12:50 PM 54 °F 46 °F 68% 29.94 in - NNE 9.2 mph - -  
12:50 PM 55.4 °F 48.2 °F 77% 29.92 in 6.2 mi NE 9.2 mph - N/A   Partly Cloudy
1:20 PM 55.4 °F 46.4 °F 72% 29.92 in 6.2 mi NE 9.2 mph - N/A   Partly Cloudy
1:50 PM 55.4 °F 46.4 °F 72% 29.95 in 6.2 mi ENE 8.1 mph - N/A   Partly Cloudy
2:20 PM 55.4 °F 44.6 °F 67% 29.95 in 6.2 mi NE 9.2 mph - N/A   Scattered Clouds
2:50 PM 57.2 °F 46.4 °F 67% 29.92 in 6.2 mi NE 6.9 mph - N/A   Partly Cloudy
3:20 PM 55.4 °F 46.4 °F 72% 29.92 in 6.2 mi ENE 8.1 mph - N/A   Scattered Clouds
3:50 PM 57 °F 46 °F 57% 29.94 in - ESE 9.2 mph - -  
3:50 PM 57.2 °F 46.4 °F 67% 29.92 in 6.2 mi ESE 10.4 mph - N/A   Scattered Clouds
4:20 PM 57.2 °F 46.4 °F 67% 29.95 in 6.2 mi ESE 8.1 mph - N/A   Scattered Clouds
4:50 PM 57.2 °F 46.4 °F 67% 29.95 in 6.2 mi ENE 5.8 mph - N/A   Partly Cloudy
5:20 PM 55.4 °F 44.6 °F 67% 29.95 in 6.2 mi ENE 6.9 mph - N/A   Partly Cloudy
5:50 PM 55.4 °F 46.4 °F 72% 29.95 in 6.2 mi NE 4.6 mph - N/A   Partly Cloudy
6:50 PM 49 °F 44 °F 78% 29.98 in - NE 5.8 mph - -  
9:50 PM 45 °F 43 °F 91% 30.02 in - NNE 4.6 mph - -